Flag for Germany Weather past 2 weeks in Deggendorf, Bavaria, Germany

Now
51 °F

Overcast.


Feels Like: 47 °F
Forecast: 40 / 49 °F
Wind: 9 mph from Southwest

Location: Straubing

Current Time: Mar 29, 2015 at 10:00:13 PM

Latest Report: Mar 29, 2015 at 9:00 PM


Visibility: 44 mi

Pressure: 29.62 "Hg

Humidity: 73%

Dew point: 42 °F

Location of DeggendorfLocation

Historic Weather in Deggendorf — Graph

°F

Deggendorf temperature yesterday

Maximum temperature yesterday: 52 °F (at 5:00 PM)
Minimum temperature yesterday: 37 °F (at 9:00 PM)
Average temperature yesterday: 44 °F

Past Weeks' High & Low Weather Summary

 TemperatureHumidityPressure
High63 °F (Mar 17, 3:00 PM)100% (Mar 23, 6:00 AM)30.33 "Hg (Mar 23, 6:00 AM)
Low23 °F (Mar 21, 6:00 AM)30% (Mar 20, 5:00 PM)29.55 "Hg (Mar 25, 5:00 PM)
Average44 °F69%30.08 "Hg
* Reported Mar 14 8:00 PM — Mar 29 9:00 PM, Deggendorf, Weather by CustomWeather, © 2015

Note: Actual official high and low records may vary slightly from our data, if they occured in-between our weather recording intervals... More about our weather records

Advertising

Deggendorf weather history for previous 24 hours

 ConditionsComfort  
Time TempWeatherWind HumidityBarometerVisibility
9:00 PM
Sun, Mar 29
51 °FOvercast.9 mph73%29.62 "Hg43 mi
8:00 PM50 °FOvercast.8 mph74%29.64 "Hg43 mi
7:00 PM50 °FDrizzle. Overcast.7 mph80%29.67 "Hg43 mi
6:00 PM49 °FLight rain. Haze.7 mph85%29.70 "Hg11 mi
4:00 PM51 °FLight rain. Overcast.6 mph83%29.72 "Hg8 mi
3:00 PM53 °FLight rain. Overcast.7 mph70%29.74 "Hg15 mi
2:00 PM54 °FOvercast.10 mph64%29.75 "Hg43 mi
1:00 PM54 °FOvercast.7 mph65%29.77 "Hg43 mi
12:00 PM55 °FOvercast.8 mph67%29.80 "Hg43 mi
11:00 AM53 °FOvercast.8 mph72%29.83 "Hg34 mi
10:00 AM50 °FOvercast.3 mph81%29.86 "Hg28 mi
9:00 AM46 °FOvercast.1 mph94%29.90 "Hg2 mi
8:00 AM45 °FOvercast.2 mph96%29.90 "Hg6 mi
7:00 AM42 °FLight freezing rain. Overcast.2 mph100%29.94 "Hg1 mi
6:00 AM45 °FOvercast.1 mph93%29.95 "Hg8 mi
5:00 AM44 °FLow clouds.1 mph97%29.96 "Hg3 mi
4:00 AM43 °FRain. Low clouds.1 mph99%29.99 "Hg1 mi
3:00 AM44 °FDrizzle. Overcast.2 mph90%30.01 "Hg2 mi
1:00 AM42 °FOvercast.1 mph88%30.01 "Hg6 mi
12:00 AM43 °FDrizzle. Overcast.2 mph76%30.03 "Hg9 mi
11:00 PM
Sat, Mar 28
43 °FLight rain. Overcast.1 mph79%30.04 "Hg9 mi
Weather by CustomWeather, © 2015

See weather overviewHow to use our weather pages